{"data":{"norad_id":37730,"epoch":"2026-09-20T04:40:18.160896Z","epoch_age_seconds":52148,"freshness":"FRESH","line1":"1 37730U 11030A   26263.19465464  .00000334  00000+0  71730-4 0  9994","line2":"2 37730  97.9458 223.8688 0009656  90.9026  39.0677 14.64414519811015","mean_motion":14.64414519,"eccentricity":0.0009656,"inclination_deg":97.9458,"raan_deg":223.8688,"arg_perigee_deg":90.9026,"mean_anomaly_deg":39.0677,"bstar":7.173e-5,"rev_number":81101,"period_min":98.332813647828,"perigee_km":672.14139897736,"apogee_km":685.77005645312,"semimajor_km":7057.0927277152,"source":"CELESTRAK","updated_at":"2026-09-20T09:00:13.802724Z"}}